Harlan, IA

3:33 AM CST on January 22, 2017 (GMT -0600)
Harlan Municipal

Weather History for KHNR - February, 2013

Change the Weather History Date:

Sunday, February 3, 2013

  Actual Average Record
Temperature  
Mean Temperature 24 °F -  
Max Temperature 35 °F 30 °F 53 °F (2005)
Min Temperature 12 °F 10 °F -17 °F (1989)
Degree Days  
Heating Degree Days 42    
Moisture  
Dew Point 20 °F    
Average Humidity 76    
Maximum Humidity 92    
Minimum Humidity 52    
Precipitation  
Precipitation 0.00 in - - ()
Sea Level Pressure  
Sea Level Pressure 30.07 in    
Wind  
Wind Speed 12 mph (SW)    
Max Wind Speed 20 mph    
Max Gust Speed 28 mph    
Visibility 10 miles    
Events      
Averages and records for this station are not official NWS values.
T = Trace of Precipitation, MM = Missing Value Source: NWS Daily Summary

Daily Weather History Graph

Daily Weather History Graph

Search for Another Location

Airport or City:

Trip Planner

Search our weather history database for the weather conditions in past years. The results will help you decide how hot, cold, wet, or windy it might be!

Date:

Astronomy

Feb. 03, 2013 Rise Set
Actual Time 7:30 AM CST 5:40 PM CST
Civil Twilight 7:01 AM CST 6:09 PM CST
Nautical Twilight 6:28 AM CST 6:42 PM CST
Astronomical Twilight 5:56 AM CST 7:14 PM CST
Moon 12:59 AM CST (2/3) 11:17 AM CST (2/3)
Length of Visible Light 11h 07m
Length of Day
10h 09m
Waning Gibbous, 48% of the Moon is Illuminated
Feb 3
Waning Gibbous
Feb 10
New
Feb 17
First Quarter
Feb 25
Full
Mar 4
Last Quarter

Hourly Weather History & Observations

Time (CST) Temp. Windchill Dew Point Humidity Pressure Visibility Wind Dir Wind Speed Gust Speed Precip Events Conditions
12:15 AM 28.4 °F 15.8 °F 21.2 °F 74% 30.13 in 10.0 mi NW 18.4 mph - N/A   Clear
12:35 AM 26.6 °F 15.2 °F 21.2 °F 80% 30.14 in 10.0 mi NW 13.8 mph 20.7 mph N/A   Clear
12:55 AM 26.6 °F 13.8 °F 19.4 °F 74% 30.15 in 10.0 mi NW 17.3 mph 21.9 mph N/A   Clear
1:15 AM 26.6 °F 13.4 °F 19.4 °F 74% 30.16 in 10.0 mi NW 18.4 mph 27.6 mph N/A   Clear
1:35 AM 24.8 °F 12.4 °F 19.4 °F 80% 30.16 in 10.0 mi NW 15.0 mph - N/A   Scattered Clouds
1:55 AM 24.8 °F 14.0 °F 19.4 °F 80% 30.18 in 10.0 mi NW 11.5 mph - N/A   Scattered Clouds
2:15 AM 24.8 °F 12.4 °F 19.4 °F 80% 30.18 in 10.0 mi WNW 15.0 mph 19.6 mph N/A   Scattered Clouds
2:35 AM 24.8 °F 13.4 °F 19.4 °F 80% 30.18 in 10.0 mi NW 12.7 mph - N/A   Clear
2:55 AM 24.8 °F 14.0 °F 19.4 °F 80% 30.19 in 10.0 mi NW 11.5 mph 18.4 mph N/A   Scattered Clouds
3:15 AM 24.8 °F 12.4 °F 19.4 °F 80% 30.19 in 10.0 mi NW 15.0 mph 20.7 mph N/A   Mostly Cloudy
3:35 AM 23.0 °F 11.7 °F 19.4 °F 86% 30.18 in 10.0 mi NW 11.5 mph - N/A   Scattered Clouds
3:55 AM 21.2 °F 8.3 °F 17.6 °F 86% 30.18 in 10.0 mi WNW 13.8 mph - N/A   Scattered Clouds
4:15 AM 21.2 °F 8.9 °F 17.6 °F 86% 30.18 in 10.0 mi NW 12.7 mph - N/A   Clear
4:35 AM 21.2 °F 10.9 °F 17.6 °F 86% 30.19 in 10.0 mi NW 9.2 mph - N/A   Clear
4:55 AM 21.2 °F 8.9 °F 15.8 °F 80% 30.20 in 10.0 mi NNW 12.7 mph 16.1 mph N/A   Clear
5:15 AM 19.4 °F 9.5 °F 14.0 °F 80% 30.21 in 10.0 mi WNW 8.1 mph - N/A   Clear
5:35 AM 19.4 °F 8.6 °F 12.2 °F 74% 30.22 in 10.0 mi WNW 9.2 mph - N/A   Clear
5:55 AM 19.4 °F 7.2 °F 14.0 °F 80% 30.22 in 10.0 mi NW 11.5 mph - N/A   Clear
6:15 AM 17.6 °F 5.0 °F 14.0 °F 86% 30.22 in 10.0 mi WNW 11.5 mph - N/A   Clear
6:35 AM 17.6 °F 10.7 °F 12.2 °F 79% 30.22 in 10.0 mi WNW 4.6 mph - N/A   Clear
6:55 AM 17.6 °F - 12.2 °F 79% 30.21 in 10.0 mi Calm Calm - N/A   Clear
7:15 AM 12.2 °F 4.3 °F 10.4 °F 92% 30.21 in 10.0 mi WNW 4.6 mph - N/A   Clear
7:35 AM 12.2 °F - 10.4 °F 92% 30.21 in 10.0 mi Calm Calm - N/A   Clear
7:55 AM 15.8 °F - 12.2 °F 86% 30.21 in 10.0 mi Calm Calm - N/A   Clear
8:15 AM 15.8 °F - 10.4 °F 79% 30.21 in 10.0 mi Calm Calm - N/A   Clear
8:35 AM 15.8 °F 6.1 °F 12.2 °F 86% 30.21 in 10.0 mi SSW 6.9 mph - N/A   Clear
8:55 AM 19.4 °F 11.5 °F 14.0 °F 80% 30.20 in 10.0 mi WSW 5.8 mph - N/A   Scattered Clouds
9:15 AM 21.2 °F 14.9 °F 14.0 °F 74% 30.21 in 10.0 mi SW 4.6 mph - N/A   Scattered Clouds
9:35 AM 21.2 °F 10.9 °F 15.8 °F 80% 30.21 in 10.0 mi WSW 9.2 mph - N/A   Mostly Cloudy
9:55 AM 23.0 °F 12.4 °F 15.8 °F 74% 30.20 in 10.0 mi West 10.4 mph - N/A   Scattered Clouds
10:15 AM 24.8 °F 16.1 °F 15.8 °F 69% 30.19 in 10.0 mi SW 8.1 mph - N/A   Clear
10:35 AM 24.8 °F 14.6 °F 15.8 °F 69% 30.18 in 10.0 mi SW 10.4 mph - N/A   Clear
10:55 AM 26.6 °F 18.2 °F 15.8 °F 64% 30.17 in 10.0 mi SW 8.1 mph - N/A   Clear
11:15 AM 26.6 °F 18.2 °F 17.6 °F 69% 30.17 in 10.0 mi SSW 8.1 mph - N/A   Clear
11:35 AM 28.4 °F 19.7 °F 17.6 °F 64% 30.16 in 10.0 mi SSW 9.2 mph - N/A   Clear
11:55 AM 28.4 °F 18.0 °F 17.6 °F 64% 30.15 in 10.0 mi SSW 12.7 mph - N/A   Clear
12:15 PM 28.4 °F 19.7 °F 17.6 °F 64% 30.13 in 10.0 mi SSW 9.2 mph - N/A   Clear
12:35 PM 30.2 °F 23.4 °F 17.6 °F 60% 30.12 in 10.0 mi South 6.9 mph - N/A   Clear
12:55 PM 30.2 °F 21.3 °F 19.4 °F 64% 30.10 in 10.0 mi South 10.4 mph - N/A   Clear
1:15 PM 30.2 °F 20.8 °F 19.4 °F 64% 30.09 in 10.0 mi South 11.5 mph - N/A   Clear
1:35 PM 33.8 °F 25.8 °F 17.6 °F 52% 30.07 in 10.0 mi South 10.4 mph 18.4 mph N/A   Clear
1:55 PM 33.8 °F 23.2 °F 19.4 °F 56% 30.06 in 10.0 mi South 17.3 mph - N/A   Clear
2:15 PM 33.8 °F 23.5 °F 19.4 °F 56% 30.05 in 10.0 mi SSW 16.1 mph 20.7 mph N/A   Clear
2:35 PM 33.8 °F 22.5 °F 19.4 °F 56% 30.03 in 10.0 mi South 19.6 mph - N/A   Clear
2:55 PM 33.8 °F 22.8 °F 19.4 °F 56% 30.01 in 10.0 mi SSW 18.4 mph 24.2 mph N/A   Clear
3:15 PM 33.8 °F 23.5 °F 21.2 °F 60% 30.00 in 10.0 mi SSW 16.1 mph 21.9 mph N/A   Clear
3:35 PM 35.6 °F 26.2 °F 23.0 °F 60% 29.99 in 10.0 mi SSW 15.0 mph 21.9 mph N/A   Clear
3:55 PM 35.6 °F 25.5 °F 24.8 °F 65% 29.98 in 10.0 mi SSW 17.3 mph 25.3 mph N/A   Clear
4:15 PM 35.6 °F 27.1 °F 24.8 °F 65% 29.96 in 10.0 mi SSW 12.7 mph 23.0 mph N/A   Clear
4:35 PM 35.6 °F 26.2 °F 24.8 °F 65% 29.95 in 10.0 mi SSW 15.0 mph - N/A   Clear
4:55 PM 33.8 °F 25.3 °F 26.6 °F 75% 29.94 in 10.0 mi South 11.5 mph - N/A   Clear
5:15 PM 33.8 °F 24.8 °F 26.6 °F 75% 29.94 in 10.0 mi SSW 12.7 mph - N/A   Clear
5:35 PM 33.8 °F 27.0 °F 26.6 °F 75% 29.93 in 10.0 mi SSW 8.1 mph - N/A   Clear
5:55 PM 33.8 °F 26.4 °F 26.6 °F 75% 29.93 in 10.0 mi SSW 9.2 mph - N/A   Clear
6:15 PM 32.0 °F 25.6 °F 24.8 °F 75% 29.93 in 10.0 mi South 6.9 mph - N/A   Clear
6:35 PM 32.0 °F 24.8 °F 26.6 °F 80% 29.92 in 10.0 mi South 8.1 mph - N/A   Clear
6:55 PM 32.0 °F 23.0 °F 26.6 °F 80% 29.92 in 10.0 mi South 11.5 mph - N/A   Clear
7:15 PM 30.2 °F 21.3 °F 26.6 °F 86% 29.91 in 10.0 mi South 10.4 mph - N/A   Clear
7:35 PM 30.2 °F 23.4 °F 26.6 °F 86% 29.92 in 10.0 mi South 6.9 mph - N/A   Clear
7:55 PM 30.2 °F 21.9 °F 26.6 °F 86% 29.91 in 10.0 mi South 9.2 mph - N/A   Clear
8:15 PM 30.2 °F 21.3 °F 26.6 °F 86% 29.89 in 10.0 mi South 10.4 mph - N/A   Clear
8:35 PM 30.2 °F 20.8 °F 26.6 °F 86% 29.88 in 10.0 mi South 11.5 mph - N/A   Clear
8:55 PM 30.2 °F 20.2 °F 26.6 °F 86% 29.87 in 10.0 mi SSW 12.7 mph - N/A   Clear
9:15 PM 30.2 °F 20.2 °F 26.6 °F 86% 29.86 in 10.0 mi South 12.7 mph - N/A   Clear
9:35 PM 30.2 °F 21.3 °F 26.6 °F 86% 29.85 in 10.0 mi SSW 10.4 mph - N/A   Clear
9:55 PM 30.2 °F 20.8 °F 26.6 °F 86% 29.85 in 10.0 mi SSW 11.5 mph - N/A   Clear
10:15 PM 30.2 °F 21.9 °F 26.6 °F 86% 29.84 in 10.0 mi SSW 9.2 mph - N/A   Clear
10:35 PM 30.2 °F 21.9 °F 26.6 °F 86% 29.83 in 10.0 mi SSW 9.2 mph - N/A   Clear
10:55 PM 30.2 °F 22.6 °F 26.6 °F 86% 29.83 in 10.0 mi SSW 8.1 mph - N/A   Clear
11:15 PM 30.2 °F 23.4 °F 26.6 °F 86% 29.82 in 10.0 mi South 6.9 mph - N/A   Clear
11:35 PM 30.2 °F 24.3 °F 26.6 °F 86% 29.82 in 10.0 mi SSW 5.8 mph - N/A   Clear
11:55 PM 32.0 °F 26.4 °F 26.6 °F 80% 29.81 in 10.0 mi South 5.8 mph - N/A   Clear